Weather in Maginsk

Russia / Republic of Bashkortostan     55°45′43″N   56°57′56″E
temp.,
°C
wind,
m/s
gust,
m/s
humid.,
%
clouds,
%
prec.,
mm/h
press.,
hPa
HPBL,
m
19 january, wed
wed1923:00−6ssw61592100 1.3 1015723
02:00−6ssw61592100 0.5 1016700
05:00−6ssw61593100 1.1 1017717
08:00−6ssw61592100 0.7 1017649
11:00−6ssw61589100 0.9 1018571
14:00−5ssw51490100 0.0 1020553
17:00−6ssw51391100 0.1 1021559
20:00−6ssw51391100 0.0 1021494
20 january, thu
thu2023:00−7ssw51590100 0.1 1022574
02:00−8s51590100 0.1 1022526
05:00−8s51492100 0.3 1023524
08:00−8ssw41392100 0.3 1023497
11:00−8ssw51390100 0.4 1024456
14:00−7ssw41190100 0.0 1023441
17:00−8ssw3109162 0.0 1024371
20:00−11s299243 0.0 1024232
21 january, fri
fri2123:00−14sse23945 0.0 102550
02:00−16sse22945 0.0 102530
05:00−17sse21955 0.0 102620
08:00−18se11978 0.0 102612
11:00−13sse12885 0.0 102650
14:00−7sse11745 0.0 1025193
17:00−11ene11945 0.0 102510
20:00−16ese119853 0.0 10279
22 january, sat
sat2223:00−18ese119945 0.0 10279
02:00−19ese119978 0.0 102810
05:00−17ese1198100 0.0 102815
08:00−17ese1198100 0.0 102811
11:00−12ese1192100 0.0 102852
14:00−8ese1183100 0.0 1028156
17:00−10e1195100 0.0 102810
20:00−15ese1197100 0.0 10309
23 january, sun
sun2323:00−15ese1197100 0.0 103111
02:00−18ese119797 0.0 10329
05:00−18ese119668 0.0 10349
08:00−19ese119561 0.0 10349
11:00−13ese1178100 0.0 103532
14:00−7ene1169100 0.0 1035167
17:00−10e1193100 0.0 103510
20:00−14e1195100 0.0 103810